Time,TemperatureF,DewpointF,PressureIn,WindDirection,WindDirectionDegrees,WindSpeedMPH,WindSpeedGustMPH,Humidity,HourlyPrecipIn,Conditions,Clouds,dailyrainin,SoftwareType,DateUTC
2013-06-28 00:00:00,72.3,70.5,29.54,SSE,147,7.0,7.0,94,0.00,,,0.00,Wunderground v.1.15,2013-06-28 04:00:00,
2013-06-28 00:05:00,72.2,70.4,29.54,SSW,199,7.0,7.0,94,0.00,,,0.00,Wunderground v.1.15,2013-06-28 04:05:00,
2013-06-28 00:10:00,72.3,70.5,29.53,SSW,197,8.0,8.0,94,0.00,,,0.00,Wunderground v.1.15,2013-06-28 04:10:00,
2013-06-28 00:15:00,72.3,70.5,29.53,SE,144,7.0,8.0,94,0.00,,,0.00,Wunderground v.1.15,2013-06-28 04:15:00,
2013-06-28 00:20:00,72.3,70.8,29.53,South,176,7.0,15.0,95,0.00,,,0.00,Wunderground v.1.15,2013-06-28 04:20:00,
2013-06-28 00:30:00,72.2,70.7,29.53,ESE,116,9.0,9.0,95,0.00,,,0.00,Wunderground v.1.15,2013-06-28 04:30:00,
2013-06-28 00:35:00,72.2,70.7,29.53,SW,215,9.0,12.0,95,0.00,,,0.00,Wunderground v.1.15,2013-06-28 04:35:00,
2013-06-28 00:40:00,72.2,70.7,29.52,SE,137,10.0,10.0,95,0.00,,,0.00,Wunderground v.1.15,2013-06-28 04:40:00,
2013-06-28 00:50:00,72.2,70.7,29.52,South,176,9.0,9.0,95,0.00,,,0.00,Wunderground v.1.15,2013-06-28 04:50:00,
2013-06-28 01:00:00,72.2,70.7,29.52,SSE,167,10.0,10.0,95,0.00,,,0.00,Wunderground v.1.15,2013-06-28 05:00:00,
2013-06-28 01:10:00,72.1,70.3,29.51,SSW,197,10.0,17.0,94,0.00,,,0.00,Wunderground v.1.15,2013-06-28 05:10:00,
2013-06-28 01:20:00,72.1,70.3,29.51,SSW,196,10.0,12.0,94,0.00,,,0.00,Wunderground v.1.15,2013-06-28 05:20:00,
2013-06-28 01:30:00,72.1,70.3,29.51,South,170,9.0,14.0,94,0.00,,,0.00,Wunderground v.1.15,2013-06-28 05:30:00,
2013-06-28 01:40:00,71.7,69.9,29.50,East,85,9.0,9.0,94,0.00,,,0.00,Wunderground v.1.15,2013-06-28 05:40:00,
2013-06-28 01:50:00,71.6,69.8,29.50,East,93,8.0,9.0,94,0.00,,,0.00,Wunderground v.1.15,2013-06-28 05:50:00,
2013-06-28 02:00:00,71.5,69.7,29.50,SSE,154,8.0,8.0,94,0.00,,,0.00,Wunderground v.1.15,2013-06-28 06:00:00,
2013-06-28 02:10:00,71.4,69.6,29.50,SE,139,7.0,10.0,94,0.00,,,0.00,Wunderground v.1.15,2013-06-28 06:10:00,
2013-06-28 02:20:00,71.3,69.5,29.50,South,191,7.0,8.0,94,0.00,,,0.00,Wunderground v.1.15,2013-06-28 06:20:00,
2013-06-28 02:30:00,71.2,69.4,29.49,South,174,7.0,11.0,94,0.00,,,0.00,Wunderground v.1.15,2013-06-28 06:30:00,
2013-06-28 02:40:00,71.4,69.6,29.50,SSW,195,6.0,12.0,94,0.00,,,0.00,Wunderground v.1.15,2013-06-28 06:40:00,
2013-06-28 02:50:00,71.5,69.7,29.50,SSE,156,6.0,6.0,94,0.00,,,0.00,Wunderground v.1.15,2013-06-28 06:50:00,
2013-06-28 03:00:00,71.5,69.7,29.49,South,185,7.0,7.0,94,0.00,,,0.00,Wunderground v.1.15,2013-06-28 07:00:00,
2013-06-28 03:10:00,71.5,69.7,29.49,SSE,162,7.0,7.0,94,0.00,,,0.00,Wunderground v.1.15,2013-06-28 07:10:00,
2013-06-28 03:20:00,71.3,69.5,29.49,South,185,7.0,9.0,94,0.00,,,0.00,Wunderground v.1.15,2013-06-28 07:20:00,
2013-06-28 03:30:00,71.2,69.4,29.48,SSE,158,6.0,6.0,94,0.00,,,0.00,Wunderground v.1.15,2013-06-28 07:30:00,
2013-06-28 03:40:00,71.1,69.3,29.48,South,185,6.0,10.0,94,0.00,,,0.00,Wunderground v.1.15,2013-06-28 07:40:00,
2013-06-28 03:50:00,71.1,69.3,29.48,South,181,7.0,11.0,94,0.00,,,0.00,Wunderground v.1.15,2013-06-28 07:50:00,
2013-06-28 04:00:00,71.0,69.2,29.47,South,191,7.0,12.0,94,0.00,,,0.00,Wunderground v.1.15,2013-06-28 08:00:00,
2013-06-28 04:10:00,70.7,68.9,29.47,South,173,7.0,7.0,94,0.00,,,0.00,Wunderground v.1.15,2013-06-28 08:10:00,
2013-06-28 04:20:00,70.8,69.0,29.47,SE,135,6.0,9.0,94,0.00,,,0.00,Wunderground v.1.15,2013-06-28 08:20:00,
2013-06-28 04:30:00,70.7,68.9,29.47,SE,137,8.0,11.0,94,0.00,,,0.00,Wunderground v.1.15,2013-06-28 08:30:00,
2013-06-28 04:40:00,70.7,68.9,29.46,ESE,121,9.0,9.0,94,0.00,,,0.00,Wunderground v.1.15,2013-06-28 08:40:00,
2013-06-28 04:50:00,70.6,68.5,29.46,ESE,111,9.0,9.0,93,0.00,,,0.00,Wunderground v.1.15,2013-06-28 08:50:00,
2013-06-28 05:00:00,70.5,68.7,29.46,SSE,163,8.0,8.0,94,0.00,,,0.00,Wunderground v.1.15,2013-06-28 09:00:00,
2013-06-28 05:10:00,70.5,68.7,29.46,SW,218,8.0,8.0,94,0.00,,,0.00,Wunderground v.1.15,2013-06-28 09:10:00,
2013-06-28 05:20:00,70.6,68.8,29.46,SE,145,7.0,7.0,94,0.00,,,0.00,Wunderground v.1.15,2013-06-28 09:20:00,
2013-06-28 05:30:00,70.7,68.9,29.46,South,174,7.0,7.0,94,0.00,,,0.00,Wunderground v.1.15,2013-06-28 09:30:00,
2013-06-28 05:40:00,70.8,69.3,29.46,South,185,7.0,9.0,95,0.00,,,0.00,Wunderground v.1.15,2013-06-28 09:40:00,
2013-06-28 05:50:00,70.8,69.3,29.46,SSE,159,8.0,8.0,95,0.00,,,0.00,Wunderground v.1.15,2013-06-28 09:50:00,
2013-06-28 06:00:00,71.2,69.7,29.45,SSW,205,7.0,8.0,95,0.00,,,0.00,Wunderground v.1.15,2013-06-28 10:00:00,
2013-06-28 06:10:00,71.4,69.9,29.46,South,170,7.0,10.0,95,0.00,,,0.00,Wunderground v.1.15,2013-06-28 10:10:00,
2013-06-28 06:20:00,71.4,69.6,29.46,SSE,153,6.0,6.0,94,0.00,,,0.00,Wunderground v.1.15,2013-06-28 10:20:00,
2013-06-28 06:30:00,71.3,69.5,29.46,SW,220,7.0,9.0,94,0.00,,,0.00,Wunderground v.1.15,2013-06-28 10:30:00,
2013-06-28 06:40:00,71.3,69.5,29.46,East,97,8.0,8.0,94,0.00,,,0.00,Wunderground v.1.15,2013-06-28 10:40:00,
2013-06-28 06:50:00,71.3,69.5,29.46,SW,220,6.0,6.0,94,0.00,,,0.00,Wunderground v.1.15,2013-06-28 10:50:00,
2013-06-28 07:00:00,71.3,69.5,29.46,SSW,194,7.0,7.0,94,0.00,,,0.00,Wunderground v.1.15,2013-06-28 11:00:00,
2013-06-28 07:10:00,71.3,69.5,29.46,SW,222,7.0,10.0,94,0.00,,,0.00,Wunderground v.1.15,2013-06-28 11:10:00,
2013-06-28 07:20:00,71.4,69.9,29.46,SSE,163,8.0,21.0,95,0.00,,,0.00,Wunderground v.1.15,2013-06-28 11:20:00,
2013-06-28 07:30:00,71.6,70.1,29.47,South,176,9.0,12.0,95,0.00,,,0.00,Wunderground v.1.15,2013-06-28 11:30:00,
2013-06-28 07:40:00,71.9,70.4,29.47,East,91,10.0,10.0,95,0.00,,,0.00,Wunderground v.1.15,2013-06-28 11:40:00,
2013-06-28 07:50:00,72.3,70.8,29.47,South,182,8.0,10.0,95,0.00,,,0.00,Wunderground v.1.15,2013-06-28 11:50:00,
2013-06-28 08:00:00,72.6,70.8,29.47,SE,142,6.0,6.0,94,0.00,,,0.00,Wunderground v.1.15,2013-06-28 12:00:00,
2013-06-28 08:10:00,73.0,71.2,29.46,SSW,201,7.0,7.0,94,0.00,,,0.00,Wunderground v.1.15,2013-06-28 12:10:00,
2013-06-28 08:20:00,73.5,71.4,29.46,SSW,195,7.0,9.0,93,0.00,,,0.00,Wunderground v.1.15,2013-06-28 12:20:00,
2013-06-28 08:30:00,74.4,72.2,29.46,South,191,6.0,7.0,93,0.00,,,0.00,Wunderground v.1.15,2013-06-28 12:30:00,
2013-06-28 08:40:00,75.4,72.6,29.46,South,180,7.0,7.0,91,0.00,,,0.00,Wunderground v.1.15,2013-06-28 12:40:00,
2013-06-28 08:50:00,76.5,72.7,29.46,South,187,8.0,9.0,88,0.00,,,0.00,Wunderground v.1.15,2013-06-28 12:50:00,
2013-06-28 09:00:00,77.0,72.8,29.45,South,176,9.0,11.0,87,0.00,,,0.00,Wunderground v.1.15,2013-06-28 13:00:00,
2013-06-28 09:10:00,77.7,73.2,29.45,SSW,196,8.0,8.0,86,0.00,,,0.00,Wunderground v.1.15,2013-06-28 13:10:00,
2013-06-28 09:20:00,77.7,72.8,29.45,SW,214,7.0,7.0,85,0.00,,,0.00,Wunderground v.1.15,2013-06-28 13:20:00,
2013-06-28 09:30:00,78.1,72.5,29.44,SW,231,7.0,8.0,83,0.00,,,0.00,Wunderground v.1.15,2013-06-28 13:30:00,
2013-06-28 09:40:00,78.5,73.3,29.44,SSW,197,8.0,10.0,84,0.00,,,0.00,Wunderground v.1.15,2013-06-28 13:40:00,
2013-06-28 09:50:00,78.3,72.7,29.44,South,184,8.0,11.0,83,0.00,,,0.00,Wunderground v.1.15,2013-06-28 13:50:00,
2013-06-28 10:00:00,78.7,73.5,29.43,SSW,199,7.0,10.0,84,0.00,,,0.00,Wunderground v.1.15,2013-06-28 14:00:00,
2013-06-28 10:10:00,79.2,73.2,29.43,SSE,153,6.0,6.0,82,0.00,,,0.00,Wunderground v.1.15,2013-06-28 14:10:00,
2013-06-28 10:20:00,78.3,72.0,29.43,SSW,195,7.0,7.0,81,0.00,,,0.00,Wunderground v.1.15,2013-06-28 14:20:00,
2013-06-28 10:30:00,78.4,72.4,29.43,WSW,255,5.0,5.0,82,0.00,,,0.00,Wunderground v.1.15,2013-06-28 14:30:00,
2013-06-28 10:40:00,78.4,71.3,29.44,West,278,7.0,7.0,79,0.00,,,0.00,Wunderground v.1.15,2013-06-28 14:40:00,
2013-06-28 10:50:00,78.0,71.7,29.44,WSW,250,7.0,7.0,81,0.00,,,0.00,Wunderground v.1.15,2013-06-28 14:50:00,
2013-06-28 11:00:00,78.2,72.3,29.44,SSW,212,6.0,6.0,82,0.00,,,0.00,Wunderground v.1.15,2013-06-28 15:00:00,
2013-06-28 11:10:00,78.8,72.1,29.44,SW,228,6.0,11.0,80,0.00,,,0.00,Wunderground v.1.15,2013-06-28 15:10:00,
2013-06-28 11:20:00,80.1,72.6,29.44,SSE,149,7.0,13.0,78,0.00,,,0.00,Wunderground v.1.15,2013-06-28 15:20:00,
2013-06-28 11:30:00,80.5,73.4,29.45,SW,216,8.0,8.0,79,0.00,,,0.00,Wunderground v.1.15,2013-06-28 15:30:00,
2013-06-28 11:40:00,80.4,72.9,29.45,South,185,7.0,9.0,78,0.00,,,0.00,Wunderground v.1.15,2013-06-28 15:40:00,
2013-06-28 11:50:00,80.0,72.5,29.45,SSW,193,7.0,7.0,78,0.00,,,0.00,Wunderground v.1.15,2013-06-28 15:50:00,
2013-06-28 12:00:00,79.9,72.4,29.45,SSW,207,9.0,11.0,78,0.00,,,0.00,Wunderground v.1.15,2013-06-28 16:00:00,
2013-06-28 12:10:00,80.5,72.6,29.45,South,181,10.0,11.0,77,0.00,,,0.00,Wunderground v.1.15,2013-06-28 16:10:00,
2013-06-28 12:20:00,80.8,72.1,29.45,SSE,166,8.0,8.0,75,0.00,,,0.00,Wunderground v.1.15,2013-06-28 16:20:00,
2013-06-28 12:30:00,81.1,73.6,29.44,SSW,210,7.0,8.0,78,0.00,,,0.00,Wunderground v.1.15,2013-06-28 16:30:00,
2013-06-28 12:40:00,81.0,72.3,29.45,South,179,10.0,10.0,75,0.00,,,0.00,Wunderground v.1.15,2013-06-28 16:40:00,
2013-06-28 12:50:00,82.1,73.8,29.45,South,189,8.0,12.0,76,0.00,,,0.00,Wunderground v.1.15,2013-06-28 16:50:00,
2013-06-28 13:00:00,82.9,72.9,29.44,SSW,210,9.0,9.0,72,0.00,,,0.00,Wunderground v.1.15,2013-06-28 17:00:00,
2013-06-28 13:10:00,82.2,73.1,29.44,South,172,11.0,11.0,74,0.00,,,0.00,Wunderground v.1.15,2013-06-28 17:10:00,
2013-06-28 13:20:00,81.7,73.0,29.44,South,181,9.0,15.0,75,0.00,,,0.00,Wunderground v.1.15,2013-06-28 17:20:00,
2013-06-28 13:30:00,81.1,72.8,29.45,SSW,193,11.0,17.0,76,0.00,,,0.00,Wunderground v.1.15,2013-06-28 17:30:00,
2013-06-28 13:40:00,80.5,72.6,29.44,SSE,164,11.0,11.0,77,0.00,,,0.00,Wunderground v.1.15,2013-06-28 17:40:00,
2013-06-28 13:50:00,81.1,72.8,29.44,South,184,10.0,10.0,76,0.00,,,0.00,Wunderground v.1.15,2013-06-28 17:50:00,
2013-06-28 14:00:00,82.0,73.3,29.44,SW,217,10.0,10.0,75,0.00,,,0.00,Wunderground v.1.15,2013-06-28 18:00:00,
2013-06-28 14:10:00,82.4,73.3,29.44,SE,143,10.0,15.0,74,0.00,,,0.00,Wunderground v.1.15,2013-06-28 18:10:00,
2013-06-28 14:20:00,81.8,72.7,29.44,ESE,108,12.0,12.0,74,0.00,,,0.00,Wunderground v.1.15,2013-06-28 18:20:00,
2013-06-28 14:30:00,81.7,73.0,29.44,SSE,162,10.0,10.0,75,0.00,,,0.00,Wunderground v.1.15,2013-06-28 18:30:00,
2013-06-28 14:40:00,82.1,73.0,29.43,SSW,197,9.0,9.0,74,0.00,,,0.00,Wunderground v.1.15,2013-06-28 18:40:00,
2013-06-28 14:50:00,81.4,73.1,29.43,ESE,106,11.0,12.0,76,0.00,,,0.00,Wunderground v.1.15,2013-06-28 18:50:00,
2013-06-28 15:00:00,82.4,73.7,29.43,South,173,10.0,10.0,75,0.00,,,0.00,Wunderground v.1.15,2013-06-28 19:00:00,
2013-06-28 15:10:00,82.8,74.1,29.42,SSE,158,8.0,17.0,75,0.00,,,0.00,Wunderground v.1.15,2013-06-28 19:10:00,
2013-06-28 15:20:00,83.0,73.9,29.42,SSE,148,8.0,8.0,74,0.00,,,0.00,Wunderground v.1.15,2013-06-28 19:20:00,
2013-06-28 15:30:00,83.0,74.3,29.42,SSE,159,8.0,10.0,75,0.00,,,0.00,Wunderground v.1.15,2013-06-28 19:30:00,
2013-06-28 15:40:00,83.2,73.6,29.43,South,170,9.0,11.0,73,0.00,,,0.00,Wunderground v.1.15,2013-06-28 19:40:00,
2013-06-28 15:50:00,82.1,73.0,29.43,South,183,9.0,10.0,74,0.00,,,0.00,Wunderground v.1.15,2013-06-28 19:50:00,
2013-06-28 16:00:00,81.4,73.5,29.43,ENE,58,10.0,10.0,77,0.00,,,0.00,Wunderground v.1.15,2013-06-28 20:00:00,
2013-06-28 16:10:00,81.2,72.5,29.42,SSW,199,9.0,9.0,75,0.00,,,0.00,Wunderground v.1.15,2013-06-28 20:10:00,
2013-06-28 16:20:00,81.4,73.1,29.42,SSW,194,11.0,11.0,76,0.00,,,0.00,Wunderground v.1.15,2013-06-28 20:20:00,
2013-06-28 16:30:00,81.4,72.7,29.42,SSW,197,11.0,11.0,75,0.00,,,0.00,Wunderground v.1.15,2013-06-28 20:30:00,
2013-06-28 16:40:00,81.1,72.8,29.42,SE,142,10.0,10.0,76,0.00,,,0.00,Wunderground v.1.15,2013-06-28 20:40:00,
2013-06-28 16:50:00,81.1,72.4,29.42,South,186,8.0,10.0,75,0.00,,,0.00,Wunderground v.1.15,2013-06-28 20:50:00,
2013-06-28 17:00:00,81.4,72.7,29.42,South,187,8.0,8.0,75,0.00,,,0.00,Wunderground v.1.15,2013-06-28 21:00:00,
2013-06-28 17:10:00,81.3,72.6,29.43,SSW,208,10.0,13.0,75,0.00,,,0.00,Wunderground v.1.15,2013-06-28 21:10:00,
2013-06-28 17:20:00,81.1,72.0,29.43,South,174,11.0,12.0,74,0.00,,,0.00,Wunderground v.1.15,2013-06-28 21:20:00,
2013-06-28 17:30:00,81.2,71.7,29.43,SSW,202,12.0,12.0,73,0.00,,,0.00,Wunderground v.1.15,2013-06-28 21:30:00,
2013-06-28 17:40:00,81.3,71.8,29.43,SSW,193,8.0,8.0,73,0.00,,,0.00,Wunderground v.1.15,2013-06-28 21:40:00,
2013-06-28 17:50:00,81.1,70.8,29.43,SSE,165,8.0,8.0,71,0.00,,,0.00,Wunderground v.1.15,2013-06-28 21:50:00,
2013-06-28 18:00:00,80.1,70.7,29.43,SSW,192,8.0,8.0,73,0.00,,,0.00,Wunderground v.1.15,2013-06-28 22:00:00,
2013-06-28 18:10:00,79.2,70.2,29.42,South,174,8.0,15.0,74,0.00,,,0.00,Wunderground v.1.15,2013-06-28 22:10:00,
2013-06-28 18:20:00,78.6,70.4,29.42,South,170,7.0,7.0,76,0.00,,,0.00,Wunderground v.1.15,2013-06-28 22:20:00,
2013-06-28 18:30:00,78.0,70.2,29.42,South,190,6.0,6.0,77,0.00,,,0.00,Wunderground v.1.15,2013-06-28 22:30:00,
2013-06-28 18:40:00,77.2,69.8,29.42,SSW,209,6.0,6.0,78,0.00,,,0.00,Wunderground v.1.15,2013-06-28 22:40:00,
2013-06-28 18:50:00,76.5,70.2,29.42,South,189,6.0,9.0,81,0.00,,,0.00,Wunderground v.1.15,2013-06-28 22:50:00,
2013-06-28 19:00:00,75.7,69.8,29.43,South,180,7.0,9.0,82,0.00,,,0.00,Wunderground v.1.15,2013-06-28 23:00:00,
2013-06-28 19:10:00,75.4,69.9,29.42,SSE,161,6.0,10.0,83,0.00,,,0.00,Wunderground v.1.15,2013-06-28 23:10:00,
2013-06-28 19:20:00,75.1,69.9,29.42,South,183,6.0,6.0,84,0.00,,,0.00,Wunderground v.1.15,2013-06-28 23:20:00,
2013-06-28 19:30:00,74.4,69.6,29.43,SSE,156,6.0,6.0,85,0.00,,,0.00,Wunderground v.1.15,2013-06-28 23:30:00,
2013-06-28 19:40:00,74.2,70.1,29.42,South,172,5.0,6.0,87,0.00,,,0.00,Wunderground v.1.15,2013-06-28 23:40:00,
2013-06-28 19:50:00,74.2,70.1,29.42,South,176,6.0,6.0,87,0.00,,,0.00,Wunderground v.1.15,2013-06-28 23:50:00,
2013-06-28 20:00:00,74.1,70.3,29.43,South,179,5.0,9.0,88,0.00,,,0.00,Wunderground v.1.15,2013-06-29 00:00:00,
2013-06-28 20:10:00,73.5,69.7,29.43,SSE,162,6.0,6.0,88,0.00,,,0.00,Wunderground v.1.15,2013-06-29 00:10:00,
2013-06-28 20:20:00,73.1,69.7,29.43,SSE,167,6.0,9.0,89,0.00,,,0.00,Wunderground v.1.15,2013-06-29 00:20:00,
2013-06-28 20:30:00,73.1,70.0,29.43,SSW,196,6.0,10.0,90,0.00,,,0.00,Wunderground v.1.15,2013-06-29 00:30:00,
2013-06-28 20:40:00,73.2,70.1,29.43,ENE,76,7.0,7.0,90,0.00,,,0.00,Wunderground v.1.15,2013-06-29 00:40:00,
2013-06-28 20:50:00,73.1,70.0,29.43,SSE,166,6.0,6.0,90,0.00,,,0.00,Wunderground v.1.15,2013-06-29 00:50:00,
2013-06-28 21:00:00,72.8,69.7,29.43,ESE,116,7.0,7.0,90,0.00,,,0.00,Wunderground v.1.15,2013-06-29 01:00:00,
2013-06-28 21:10:00,72.5,69.7,29.44,SE,131,7.0,7.0,91,0.00,,,0.00,Wunderground v.1.15,2013-06-29 01:10:00,
2013-06-28 21:20:00,72.4,69.6,29.44,South,189,6.0,6.0,91,0.00,,,0.00,Wunderground v.1.15,2013-06-29 01:20:00,
2013-06-28 21:30:00,72.6,70.1,29.45,ESE,112,5.0,5.0,92,0.00,,,0.00,Wunderground v.1.15,2013-06-29 01:30:00,
2013-06-28 21:40:00,72.9,70.4,29.45,SSW,197,5.0,5.0,92,0.00,,,0.00,Wunderground v.1.15,2013-06-29 01:40:00,
2013-06-28 21:50:00,73.0,70.2,29.45,ESE,121,6.0,6.0,91,0.00,,,0.00,Wunderground v.1.15,2013-06-29 01:50:00,
2013-06-28 22:00:00,73.2,70.4,29.44,South,169,6.0,6.0,91,0.00,,,0.00,Wunderground v.1.15,2013-06-29 02:00:00,
2013-06-28 22:10:00,73.0,70.2,29.45,SSW,193,7.0,7.0,91,0.00,,,0.00,Wunderground v.1.15,2013-06-29 02:10:00,
2013-06-28 22:20:00,72.9,70.1,29.45,South,171,6.0,9.0,91,0.00,,,0.00,Wunderground v.1.15,2013-06-29 02:20:00,
2013-06-28 22:30:00,72.8,70.0,29.44,South,176,7.0,7.0,91,0.00,,,0.00,Wunderground v.1.15,2013-06-29 02:30:00,
2013-06-28 22:40:00,72.8,70.0,29.44,SW,226,6.0,6.0,91,0.00,,,0.00,Wunderground v.1.15,2013-06-29 02:40:00,
2013-06-28 22:50:00,72.7,70.2,29.44,South,181,7.0,7.0,92,0.00,,,0.00,Wunderground v.1.15,2013-06-29 02:50:00,
2013-06-28 23:00:00,72.7,70.2,29.44,SSE,155,6.0,6.0,92,0.00,,,0.00,Wunderground v.1.15,2013-06-29 03:00:00,
2013-06-28 23:10:00,72.6,70.1,29.44,South,191,5.0,7.0,92,0.00,,,0.00,Wunderground v.1.15,2013-06-29 03:10:00,
2013-06-28 23:20:00,72.8,70.3,29.44,SSE,163,6.0,6.0,92,0.00,,,0.00,Wunderground v.1.15,2013-06-29 03:20:00,
2013-06-28 23:30:00,73.1,70.3,29.45,South,171,5.0,7.0,91,0.00,,,0.00,Wunderground v.1.15,2013-06-29 03:30:00,
2013-06-28 23:40:00,72.9,70.1,29.45,South,184,6.0,6.0,91,0.00,,,0.00,Wunderground v.1.15,2013-06-29 03:40:00,
2013-06-28 23:50:00,72.9,70.1,29.44,SSW,195,5.0,6.0,91,0.00,,,0.00,Wunderground v.1.15,2013-06-29 03:50:00,